owner,sensor,date,latitude,longitude,vertical_datum,sea_water_practical_salinity,qcFlag 
NERRS,ioos:station:NOAA.NERRS:gndbhwq:1,2016-12-01T00:45:00Z,30.4178,-88.4054,1.38,28.3,1111122 
NERRS,ioos:station:NOAA.NERRS:gndbhwq:1,2016-12-01T01:45:00Z,30.4178,-88.4054,1.46,28.3,1111122 
NERRS,ioos:station:NOAA.NERRS:gndbhwq:1,2016-12-01T02:45:00Z,30.4178,-88.4054,1.57,28.4,1111122 
NERRS,ioos:station:NOAA.NERRS:gndbhwq:1,2016-12-01T03:45:00Z,30.4178,-88.4054,1.54,28.5,1111122 
NERRS,ioos:station:NOAA.NERRS:gndbhwq:1,2016-12-01T04:45:00Z,30.4178,-88.4054,1.56,28.5,1111122 
NERRS,ioos:station:NOAA.NERRS:gndbhwq:1,2016-12-01T05:45:00Z,30.4178,-88.4054,1.5,28.5,1111122 
NERRS,ioos:station:NOAA.NERRS:gndbhwq:1,2016-12-01T06:45:00Z,30.4178,-88.4054,1.43,28.5,1111122 
NERRS,ioos:station:NOAA.NERRS:gndbhwq:1,2016-12-01T07:45:00Z,30.4178,-88.4054,1.34,28.5,1111122 
NERRS,ioos:station:NOAA.NERRS:gndbhwq:1,2016-12-01T08:45:00Z,30.4178,-88.4054,1.29,28.4,1111122 
NERRS,ioos:station:NOAA.NERRS:gndbhwq:1,2016-12-01T09:45:00Z,30.4178,-88.4054,1.19,28.2,1111122 
NERRS,ioos:station:NOAA.NERRS:gndbhwq:1,2016-12-01T10:45:00Z,30.4178,-88.4054,1.08,27.9,1111122 
NERRS,ioos:station:NOAA.NERRS:gndbhwq:1,2016-12-01T11:45:00Z,30.4178,-88.4054,0.99,27.8,1111122 
NERRS,ioos:station:NOAA.NERRS:gndbhwq:1,2016-12-01T12:45:00Z,30.4178,-88.4054,0.93,27.8,1111122 
NERRS,ioos:station:NOAA.NERRS:gndbhwq:1,2016-12-01T13:45:00Z,30.4178,-88.4054,0.93,27.8,1111122 
NERRS,ioos:station:NOAA.NERRS:gndbhwq:1,2016-12-01T14:45:00Z,30.4178,-88.4054,1.0,27.9,1111122 
NERRS,ioos:station:NOAA.NERRS:gndbhwq:1,2016-12-01T15:45:00Z,30.4178,-88.4054,1.08,27.9,1111122 
NERRS,ioos:station:NOAA.NERRS:gndbhwq:1,2016-12-01T17:45:00Z,30.4178,-88.4054,1.16,28.1,1111122 
NERRS,ioos:station:NOAA.NERRS:gndbhwq:1,2016-12-01T18:45:00Z,30.4178,-88.4054,1.16,28.1,1111122 
NERRS,ioos:station:NOAA.NERRS:gndbhwq:1,2016-12-01T19:45:00Z,30.4178,-88.4054,1.19,28.1,1111122 
NERRS,ioos:station:NOAA.NERRS:gndbhwq:1,2016-12-01T20:45:00Z,30.4178,-88.4054,1.25,28.1,1111122 
NERRS,ioos:station:NOAA.NERRS:gndbhwq:1,2016-12-01T21:45:00Z,30.4178,-88.4054,1.28,28.2,1111122 
NERRS,ioos:station:NOAA.NERRS:gndbhwq:1,2016-12-01T22:45:00Z,30.4178,-88.4054,1.28,28.2,1111122 
NERRS,ioos:station:NOAA.NERRS:gndbhwq:1,2016-12-01T23:45:00Z,30.4178,-88.4054,1.32,28.2,1111122 
NERRS,ioos:station:NOAA.NERRS:gndbhwq:1,2016-12-02T00:45:00Z,30.4178,-88.4054,1.34,28.3,1111122 
NERRS,ioos:station:NOAA.NERRS:gndbhwq:1,2016-12-02T01:45:00Z,30.4178,-88.4054,1.42,28.3,1111122 
NERRS,ioos:station:NOAA.NERRS:gndbhwq:1,2016-12-02T02:45:00Z,30.4178,-88.4054,1.45,28.3,1111122 
NERRS,ioos:station:NOAA.NERRS:gndbhwq:1,2016-12-02T03:45:00Z,30.4178,-88.4054,1.51,28.3,1111122 
NERRS,ioos:station:NOAA.NERRS:gndbhwq:1,2016-12-02T04:45:00Z,30.4178,-88.4054,1.52,28.2,1111122 
NERRS,ioos:station:NOAA.NERRS:gndbhwq:1,2016-12-02T05:45:00Z,30.4178,-88.4054,1.44,28.0,1111122 
NERRS,ioos:station:NOAA.NERRS:gndbhwq:1,2016-12-02T06:45:00Z,30.4178,-88.4054,1.37,28.1,1111122 
NERRS,ioos:station:NOAA.NERRS:gndbhwq:1,2016-12-02T07:45:00Z,30.4178,-88.4054,1.32,28.1,1111122 
NERRS,ioos:station:NOAA.NERRS:gndbhwq:1,2016-12-02T08:45:00Z,30.4178,-88.4054,1.28,28.1,1111122 
NERRS,ioos:station:NOAA.NERRS:gndbhwq:1,2016-12-02T09:45:00Z,30.4178,-88.4054,1.22,28.1,1111122 
NERRS,ioos:station:NOAA.NERRS:gndbhwq:1,2016-12-02T10:45:00Z,30.4178,-88.4054,1.09,28.1,1111122 
NERRS,ioos:station:NOAA.NERRS:gndbhwq:1,2016-12-02T11:45:00Z,30.4178,-88.4054,1.03,28.0,1111122 
NERRS,ioos:station:NOAA.NERRS:gndbhwq:1,2016-12-02T12:45:00Z,30.4178,-88.4054,0.95,28.0,1111122 
NERRS,ioos:station:NOAA.NERRS:gndbhwq:1,2016-12-02T13:45:00Z,30.4178,-88.4054,0.93,27.9,1111122 
NERRS,ioos:station:NOAA.NERRS:gndbhwq:1,2016-12-02T14:45:00Z,30.4178,-88.4054,0.92,27.9,1111122 
NERRS,ioos:station:NOAA.NERRS:gndbhwq:1,2016-12-02T15:45:00Z,30.4178,-88.4054,1.04,28.0,1111122 
NERRS,ioos:station:NOAA.NERRS:gndbhwq:1,2016-12-02T16:45:00Z,30.4178,-88.4054,0.98,27.9,1111122 
NERRS,ioos:station:NOAA.NERRS:gndbhwq:1,2016-12-02T17:45:00Z,30.4178,-88.4054,1.1,28.0,1111122 
NERRS,ioos:station:NOAA.NERRS:gndbhwq:1,2016-12-02T18:45:00Z,30.4178,-88.4054,1.02,28.0,1111122 
NERRS,ioos:station:NOAA.NERRS:gndbhwq:1,2016-12-02T19:45:00Z,30.4178,-88.4054,1.14,28.1,1111122 
NERRS,ioos:station:NOAA.NERRS:gndbhwq:1,2016-12-02T20:45:00Z,30.4178,-88.4054,1.18,28.1,1111122 
NERRS,ioos:station:NOAA.NERRS:gndbhwq:1,2016-12-02T21:45:00Z,30.4178,-88.4054,1.21,28.1,1111122 
NERRS,ioos:station:NOAA.NERRS:gndbhwq:1,2016-12-02T22:45:00Z,30.4178,-88.4054,1.25,28.1,1111122 
NERRS,ioos:station:NOAA.NERRS:gndbhwq:1,2016-12-02T23:45:00Z,30.4178,-88.4054,1.29,28.1,1111122 
NERRS,ioos:station:NOAA.NERRS:gndbhwq:1,2016-12-03T00:45:00Z,30.4178,-88.4054,1.35,28.2,1111122 
NERRS,ioos:station:NOAA.NERRS:gndbhwq:1,2016-12-03T01:45:00Z,30.4178,-88.4054,1.39,28.2,1111122 
NERRS,ioos:station:NOAA.NERRS:gndbhwq:1,2016-12-03T02:45:00Z,30.4178,-88.4054,1.43,28.2,1111122 
NERRS,ioos:station:NOAA.NERRS:gndbhwq:1,2016-12-03T03:45:00Z,30.4178,-88.4054,1.51,28.3,1111122 
NERRS,ioos:station:NOAA.NERRS:gndbhwq:1,2016-12-03T04:45:00Z,30.4178,-88.4054,1.55,28.3,1111122 
NERRS,ioos:station:NOAA.NERRS:gndbhwq:1,2016-12-03T05:45:00Z,30.4178,-88.4054,1.54,28.3,1111122 
NERRS,ioos:station:NOAA.NERRS:gndbhwq:1,2016-12-03T06:45:00Z,30.4178,-88.4054,1.44,28.3,1111122 
NERRS,ioos:station:NOAA.NERRS:gndbhwq:1,2016-12-03T07:45:00Z,30.4178,-88.4054,1.37,28.2,1111122 
NERRS,ioos:station:NOAA.NERRS:gndbhwq:1,2016-12-03T08:45:00Z,30.4178,-88.4054,1.35,28.2,1111122 
NERRS,ioos:station:NOAA.NERRS:gndbhwq:1,2016-12-03T09:45:00Z,30.4178,-88.4054,1.34,28.3,1111122 
NERRS,ioos:station:NOAA.NERRS:gndbhwq:1,2016-12-03T10:45:00Z,30.4178,-88.4054,1.15,28.0,1111122 
NERRS,ioos:station:NOAA.NERRS:gndbhwq:1,2016-12-03T11:45:00Z,30.4178,-88.4054,1.19,28.2,1111122 
NERRS,ioos:station:NOAA.NERRS:gndbhwq:1,2016-12-03T12:45:00Z,30.4178,-88.4054,1.09,28.1,1111122 
NERRS,ioos:station:NOAA.NERRS:gndbhwq:1,2016-12-03T13:45:00Z,30.4178,-88.4054,1.1,28.1,1111122 
NERRS,ioos:station:NOAA.NERRS:gndbhwq:1,2016-12-03T14:45:00Z,30.4178,-88.4054,1.06,28.1,1111122 
NERRS,ioos:station:NOAA.NERRS:gndbhwq:1,2016-12-03T15:45:00Z,30.4178,-88.4054,1.07,28.0,1111122 
NERRS,ioos:station:NOAA.NERRS:gndbhwq:1,2016-12-03T16:45:00Z,30.4178,-88.4054,1.03,28.0,1111122 
NERRS,ioos:station:NOAA.NERRS:gndbhwq:1,2016-12-03T17:45:00Z,30.4178,-88.4054,1.06,28.0,1111122 
NERRS,ioos:station:NOAA.NERRS:gndbhwq:1,2016-12-03T18:45:00Z,30.4178,-88.4054,1.1,28.1,1111122 
NERRS,ioos:station:NOAA.NERRS:gndbhwq:1,2016-12-03T19:45:00Z,30.4178,-88.4054,1.14,28.2,1111122 
NERRS,ioos:station:NOAA.NERRS:gndbhwq:1,2016-12-03T20:45:00Z,30.4178,-88.4054,1.22,28.2,1111122 
NERRS,ioos:station:NOAA.NERRS:gndbhwq:1,2016-12-03T21:45:00Z,30.4178,-88.4054,1.2,28.2,1111122 
NERRS,ioos:station:NOAA.NERRS:gndbhwq:1,2016-12-03T22:45:00Z,30.4178,-88.4054,1.22,28.2,1111122 
NERRS,ioos:station:NOAA.NERRS:gndbhwq:1,2016-12-03T23:45:00Z,30.4178,-88.4054,1.23,28.2,1111122 
NERRS,ioos:station:NOAA.NERRS:gndbhwq:1,2016-12-04T00:45:00Z,30.4178,-88.4054,1.33,28.2,1111122 
NERRS,ioos:station:NOAA.NERRS:gndbhwq:1,2016-12-04T01:45:00Z,30.4178,-88.4054,1.35,28.3,1111122 
NERRS,ioos:station:NOAA.NERRS:gndbhwq:1,2016-12-04T02:45:00Z,30.4178,-88.4054,1.47,28.3,1111122 
NERRS,ioos:station:NOAA.NERRS:gndbhwq:1,2016-12-04T03:45:00Z,30.4178,-88.4054,1.55,28.3,1111122 
NERRS,ioos:station:NOAA.NERRS:gndbhwq:1,2016-12-04T04:45:00Z,30.4178,-88.4054,1.59,28.4,1111122 
NERRS,ioos:station:NOAA.NERRS:gndbhwq:1,2016-12-04T05:45:00Z,30.4178,-88.4054,1.61,28.4,1111122 
NERRS,ioos:station:NOAA.NERRS:gndbhwq:1,2016-12-04T06:45:00Z,30.4178,-88.4054,1.62,28.4,1111122 
NERRS,ioos:station:NOAA.NERRS:gndbhwq:1,2016-12-04T07:45:00Z,30.4178,-88.4054,1.6,28.4,1111122 
NERRS,ioos:station:NOAA.NERRS:gndbhwq:1,2016-12-04T08:45:00Z,30.4178,-88.4054,1.63,28.5,1111122 
NERRS,ioos:station:NOAA.NERRS:gndbhwq:1,2016-12-04T09:45:00Z,30.4178,-88.4054,1.6,28.4,1111122 
NERRS,ioos:station:NOAA.NERRS:gndbhwq:1,2016-12-04T10:45:00Z,30.4178,-88.4054,1.51,28.4,1111122 
NERRS,ioos:station:NOAA.NERRS:gndbhwq:1,2016-12-04T11:45:00Z,30.4178,-88.4054,1.41,28.3,1111122 
NERRS,ioos:station:NOAA.NERRS:gndbhwq:1,2016-12-04T12:45:00Z,30.4178,-88.4054,1.37,28.1,1111122 
NERRS,ioos:station:NOAA.NERRS:gndbhwq:1,2016-12-04T13:45:00Z,30.4178,-88.4054,1.49,28.4,1111122 
NERRS,ioos:station:NOAA.NERRS:gndbhwq:1,2016-12-04T14:45:00Z,30.4178,-88.4054,1.29,28.0,1111122 
NERRS,ioos:station:NOAA.NERRS:gndbhwq:1,2016-12-04T15:45:00Z,30.4178,-88.4054,1.3,28.1,1111122 
NERRS,ioos:station:NOAA.NERRS:gndbhwq:1,2016-12-04T16:45:00Z,30.4178,-88.4054,1.03,27.8,1111122 
NERRS,ioos:station:NOAA.NERRS:gndbhwq:1,2016-12-04T17:45:00Z,30.4178,-88.4054,1.19,27.9,1111122 
NERRS,ioos:station:NOAA.NERRS:gndbhwq:1,2016-12-04T18:45:00Z,30.4178,-88.4054,1.11,27.7,1111122 
NERRS,ioos:station:NOAA.NERRS:gndbhwq:1,2016-12-04T19:45:00Z,30.4178,-88.4054,1.19,27.9,1111122 
NERRS,ioos:station:NOAA.NERRS:gndbhwq:1,2016-12-04T20:45:00Z,30.4178,-88.4054,1.27,28.1,1111122 
NERRS,ioos:station:NOAA.NERRS:gndbhwq:1,2016-12-04T21:45:00Z,30.4178,-88.4054,1.28,28.0,1111122 
NERRS,ioos:station:NOAA.NERRS:gndbhwq:1,2016-12-04T22:45:00Z,30.4178,-88.4054,1.31,28.0,1111122 
NERRS,ioos:station:NOAA.NERRS:gndbhwq:1,2016-12-04T23:45:00Z,30.4178,-88.4054,1.26,28.0,1111122 
NERRS,ioos:station:NOAA.NERRS:gndbhwq:1,2016-12-05T00:45:00Z,30.4178,-88.4054,1.34,28.1,1111122 
NERRS,ioos:station:NOAA.NERRS:gndbhwq:1,2016-12-05T01:45:00Z,30.4178,-88.4054,1.29,28.2,1111122 
NERRS,ioos:station:NOAA.NERRS:gndbhwq:1,2016-12-05T02:45:00Z,30.4178,-88.4054,1.38,28.2,1111122 
NERRS,ioos:station:NOAA.NERRS:gndbhwq:1,2016-12-05T03:45:00Z,30.4178,-88.4054,1.39,28.1,1111122 
NERRS,ioos:station:NOAA.NERRS:gndbhwq:1,2016-12-05T04:45:00Z,30.4178,-88.4054,1.48,28.1,1111122 
NERRS,ioos:station:NOAA.NERRS:gndbhwq:1,2016-12-05T05:45:00Z,30.4178,-88.4054,1.48,28.0,1111122 
NERRS,ioos:station:NOAA.NERRS:gndbhwq:1,2016-12-05T06:45:00Z,30.4178,-88.4054,1.52,28.1,1111122 
NERRS,ioos:station:NOAA.NERRS:gndbhwq:1,2016-12-05T07:45:00Z,30.4178,-88.4054,1.53,28.1,1111122 
NERRS,ioos:station:NOAA.NERRS:gndbhwq:1,2016-12-05T08:45:00Z,30.4178,-88.4054,1.53,28.0,1111122 
NERRS,ioos:station:NOAA.NERRS:gndbhwq:1,2016-12-05T09:45:00Z,30.4178,-88.4054,1.47,28.0,1111122 
NERRS,ioos:station:NOAA.NERRS:gndbhwq:1,2016-12-05T10:45:00Z,30.4178,-88.4054,1.43,28.0,1111122 
NERRS,ioos:station:NOAA.NERRS:gndbhwq:1,2016-12-05T11:45:00Z,30.4178,-88.4054,1.37,28.0,1111122 
NERRS,ioos:station:NOAA.NERRS:gndbhwq:1,2016-12-05T12:45:00Z,30.4178,-88.4054,1.24,28.0,1111122 
NERRS,ioos:station:NOAA.NERRS:gndbhwq:1,2016-12-05T13:45:00Z,30.4178,-88.4054,1.19,28.0,1111122 
NERRS,ioos:station:NOAA.NERRS:gndbhwq:1,2016-12-05T14:45:00Z,30.4178,-88.4054,1.07,27.9,1111122 
NERRS,ioos:station:NOAA.NERRS:gndbhwq:1,2016-12-05T21:45:00Z,30.4178,-88.4054,1.27,27.7,1111122 
NERRS,ioos:station:NOAA.NERRS:gndbhwq:1,2016-12-05T22:45:00Z,30.4178,-88.4054,1.25,27.6,1111122 
NERRS,ioos:station:NOAA.NERRS:gndbhwq:1,2016-12-05T23:45:00Z,30.4178,-88.4054,1.2,27.6,1111122 
NERRS,ioos:station:NOAA.NERRS:gndbhwq:1,2016-12-06T00:45:00Z,30.4178,-88.4054,1.19,27.6,1111122 
NERRS,ioos:station:NOAA.NERRS:gndbhwq:1,2016-12-06T01:45:00Z,30.4178,-88.4054,1.24,27.6,1111122 
NERRS,ioos:station:NOAA.NERRS:gndbhwq:1,2016-12-06T02:45:00Z,30.4178,-88.4054,1.35,27.6,1111122 
NERRS,ioos:station:NOAA.NERRS:gndbhwq:1,2016-12-06T03:45:00Z,30.4178,-88.4054,1.46,27.6,1111122 
NERRS,ioos:station:NOAA.NERRS:gndbhwq:1,2016-12-06T04:45:00Z,30.4178,-88.4054,1.52,27.6,1111122 
NERRS,ioos:station:NOAA.NERRS:gndbhwq:1,2016-12-06T05:45:00Z,30.4178,-88.4054,1.57,27.6,1111122 
NERRS,ioos:station:NOAA.NERRS:gndbhwq:1,2016-12-06T06:45:00Z,30.4178,-88.4054,1.56,27.6,1111122 
NERRS,ioos:station:NOAA.NERRS:gndbhwq:1,2016-12-06T07:45:00Z,30.4178,-88.4054,1.58,27.6,1111122 
NERRS,ioos:station:NOAA.NERRS:gndbhwq:1,2016-12-06T08:45:00Z,30.4178,-88.4054,1.56,27.5,1111122 
NERRS,ioos:station:NOAA.NERRS:gndbhwq:1,2016-12-06T09:45:00Z,30.4178,-88.4054,1.52,27.5,1111122 
NERRS,ioos:station:NOAA.NERRS:gndbhwq:1,2016-12-06T10:45:00Z,30.4178,-88.4054,1.51,27.5,1111122 
NERRS,ioos:station:NOAA.NERRS:gndbhwq:1,2016-12-06T11:45:00Z,30.4178,-88.4054,1.42,27.4,1111122 
NERRS,ioos:station:NOAA.NERRS:gndbhwq:1,2016-12-06T12:45:00Z,30.4178,-88.4054,1.33,27.4,1111122 
NERRS,ioos:station:NOAA.NERRS:gndbhwq:1,2016-12-06T13:45:00Z,30.4178,-88.4054,1.19,27.2,1111122 
NERRS,ioos:station:NOAA.NERRS:gndbhwq:1,2016-12-06T14:45:00Z,30.4178,-88.4054,1.08,27.1,1111122 
NERRS,ioos:station:NOAA.NERRS:gndbhwq:1,2016-12-06T15:45:00Z,30.4178,-88.4054,1.05,27.1,1111122 
NERRS,ioos:station:NOAA.NERRS:gndbhwq:1,2016-12-06T16:45:00Z,30.4178,-88.4054,1.02,27.0,1111122 
NERRS,ioos:station:NOAA.NERRS:gndbhwq:1,2016-12-06T17:45:00Z,30.4178,-88.4054,1.03,27.1,1111122 
NERRS,ioos:station:NOAA.NERRS:gndbhwq:1,2016-12-06T18:45:00Z,30.4178,-88.4054,1.04,27.1,1111122 
NERRS,ioos:station:NOAA.NERRS:gndbhwq:1,2016-12-06T19:45:00Z,30.4178,-88.4054,1.05,27.1,1111122 
NERRS,ioos:station:NOAA.NERRS:gndbhwq:1,2016-12-06T20:45:00Z,30.4178,-88.4054,1.04,27.0,1111122 
NERRS,ioos:station:NOAA.NERRS:gndbhwq:1,2016-12-06T21:45:00Z,30.4178,-88.4054,1.12,27.0,1111122 
NERRS,ioos:station:NOAA.NERRS:gndbhwq:1,2016-12-06T22:45:00Z,30.4178,-88.4054,1.14,26.8,1111122 
NERRS,ioos:station:NOAA.NERRS:gndbhwq:1,2016-12-06T23:45:00Z,30.4178,-88.4054,1.22,26.7,1111122 
NERRS,ioos:station:NOAA.NERRS:gndbhwq:1,2016-12-07T00:45:00Z,30.4178,-88.4054,1.21,26.6,1111122 
NERRS,ioos:station:NOAA.NERRS:gndbhwq:1,2016-12-07T01:45:00Z,30.4178,-88.4054,1.2,26.5,1111122 
NERRS,ioos:station:NOAA.NERRS:gndbhwq:1,2016-12-07T02:45:00Z,30.4178,-88.4054,1.23,26.4,1111122 
NERRS,ioos:station:NOAA.NERRS:gndbhwq:1,2016-12-07T03:45:00Z,30.4178,-88.4054,1.23,26.5,1111122 
NERRS,ioos:station:NOAA.NERRS:gndbhwq:1,2016-12-07T04:45:00Z,30.4178,-88.4054,1.23,26.5,1111122 
NERRS,ioos:station:NOAA.NERRS:gndbhwq:1,2016-12-07T05:45:00Z,30.4178,-88.4054,1.3,26.5,1111122 
NERRS,ioos:station:NOAA.NERRS:gndbhwq:1,2016-12-07T06:45:00Z,30.4178,-88.4054,1.27,26.6,1111122 
NERRS,ioos:station:NOAA.NERRS:gndbhwq:1,2016-12-07T07:45:00Z,30.4178,-88.4054,1.33,26.6,1111122 
NERRS,ioos:station:NOAA.NERRS:gndbhwq:1,2016-12-07T08:45:00Z,30.4178,-88.4054,1.32,26.5,1111122 
NERRS,ioos:station:NOAA.NERRS:gndbhwq:1,2016-12-07T09:45:00Z,30.4178,-88.4054,1.28,26.4,1111122 
NERRS,ioos:station:NOAA.NERRS:gndbhwq:1,2016-12-07T10:45:00Z,30.4178,-88.4054,1.28,26.4,1111122 
NERRS,ioos:station:NOAA.NERRS:gndbhwq:1,2016-12-07T11:45:00Z,30.4178,-88.4054,1.25,26.4,1111122 
NERRS,ioos:station:NOAA.NERRS:gndbhwq:1,2016-12-07T12:45:00Z,30.4178,-88.4054,1.24,26.4,1111122 
NERRS,ioos:station:NOAA.NERRS:gndbhwq:1,2016-12-07T13:45:00Z,30.4178,-88.4054,1.19,26.3,1111122 
NERRS,ioos:station:NOAA.NERRS:gndbhwq:1,2016-12-07T14:45:00Z,30.4178,-88.4054,1.21,26.3,1111122 
NERRS,ioos:station:NOAA.NERRS:gndbhwq:1,2016-12-07T15:45:00Z,30.4178,-88.4054,1.17,26.2,1111122 
NERRS,ioos:station:NOAA.NERRS:gndbhwq:1,2016-12-07T16:45:00Z,30.4178,-88.4054,1.1,26.1,1111122 
NERRS,ioos:station:NOAA.NERRS:gndbhwq:1,2016-12-07T17:45:00Z,30.4178,-88.4054,1.13,26.1,1111122 
NERRS,ioos:station:NOAA.NERRS:gndbhwq:1,2016-12-07T18:45:00Z,30.4178,-88.4054,1.17,26.1,1111122 
NERRS,ioos:station:NOAA.NERRS:gndbhwq:1,2016-12-07T19:45:00Z,30.4178,-88.4054,1.15,26.0,1111122 
NERRS,ioos:station:NOAA.NERRS:gndbhwq:1,2016-12-07T20:45:00Z,30.4178,-88.4054,1.21,26.0,1111122 
NERRS,ioos:station:NOAA.NERRS:gndbhwq:1,2016-12-07T21:45:00Z,30.4178,-88.4054,1.2,26.0,1111122 
NERRS,ioos:station:NOAA.NERRS:gndbhwq:1,2016-12-07T22:45:00Z,30.4178,-88.4054,1.26,26.0,1111122 
NERRS,ioos:station:NOAA.NERRS:gndbhwq:1,2016-12-07T23:45:00Z,30.4178,-88.4054,1.29,26.0,1111122 
NERRS,ioos:station:NOAA.NERRS:gndbhwq:1,2016-12-08T00:45:00Z,30.4178,-88.4054,1.32,25.9,1111122 
NERRS,ioos:station:NOAA.NERRS:gndbhwq:1,2016-12-08T01:45:00Z,30.4178,-88.4054,1.32,25.8,1111122 
NERRS,ioos:station:NOAA.NERRS:gndbhwq:1,2016-12-08T03:45:00Z,30.4178,-88.4054,1.32,25.7,1111122 
NERRS,ioos:station:NOAA.NERRS:gndbhwq:1,2016-12-08T04:45:00Z,30.4178,-88.4054,1.34,25.7,1111122 
NERRS,ioos:station:NOAA.NERRS:gndbhwq:1,2016-12-08T05:45:00Z,30.4178,-88.4054,1.28,25.6,1111122 
NERRS,ioos:station:NOAA.NERRS:gndbhwq:1,2016-12-08T06:45:00Z,30.4178,-88.4054,1.27,25.6,1111122 
NERRS,ioos:station:NOAA.NERRS:gndbhwq:1,2016-12-08T07:45:00Z,30.4178,-88.4054,1.29,25.6,1111122 
NERRS,ioos:station:NOAA.NERRS:gndbhwq:1,2016-12-08T08:45:00Z,30.4178,-88.4054,1.26,25.7,1111122 
NERRS,ioos:station:NOAA.NERRS:gndbhwq:1,2016-12-08T09:45:00Z,30.4178,-88.4054,1.25,25.7,1111122 
NERRS,ioos:station:NOAA.NERRS:gndbhwq:1,2016-12-08T10:45:00Z,30.4178,-88.4054,1.24,25.7,1111122 
NERRS,ioos:station:NOAA.NERRS:gndbhwq:1,2016-12-08T11:45:00Z,30.4178,-88.4054,1.17,25.7,1111122 
NERRS,ioos:station:NOAA.NERRS:gndbhwq:1,2016-12-08T12:45:00Z,30.4178,-88.4054,1.21,25.7,1111122 
NERRS,ioos:station:NOAA.NERRS:gndbhwq:1,2016-12-08T13:45:00Z,30.4178,-88.4054,1.18,25.7,1111122 
NERRS,ioos:station:NOAA.NERRS:gndbhwq:1,2016-12-08T14:45:00Z,30.4178,-88.4054,1.13,25.6,1111122 
NERRS,ioos:station:NOAA.NERRS:gndbhwq:1,2016-12-08T15:45:00Z,30.4178,-88.4054,1.07,25.6,1111122 
NERRS,ioos:station:NOAA.NERRS:gndbhwq:1,2016-12-08T16:45:00Z,30.4178,-88.4054,1.01,25.6,1111122 
NERRS,ioos:station:NOAA.NERRS:gndbhwq:1,2016-12-08T17:45:00Z,30.4178,-88.4054,0.94,25.5,1111122 
NERRS,ioos:station:NOAA.NERRS:gndbhwq:1,2016-12-08T18:45:00Z,30.4178,-88.4054,1.02,25.6,1111122 
NERRS,ioos:station:NOAA.NERRS:gndbhwq:1,2016-12-08T19:45:00Z,30.4178,-88.4054,1.09,25.7,1111122 
NERRS,ioos:station:NOAA.NERRS:gndbhwq:1,2016-12-08T20:45:00Z,30.4178,-88.4054,1.03,25.6,1111122 
NERRS,ioos:station:NOAA.NERRS:gndbhwq:1,2016-12-08T21:45:00Z,30.4178,-88.4054,1.11,25.7,1111122 
NERRS,ioos:station:NOAA.NERRS:gndbhwq:1,2016-12-08T22:45:00Z,30.4178,-88.4054,1.22,25.7,1111122 
NERRS,ioos:station:NOAA.NERRS:gndbhwq:1,2016-12-08T23:45:00Z,30.4178,-88.4054,1.24,25.6,1111122 
NERRS,ioos:station:NOAA.NERRS:gndbhwq:1,2016-12-09T00:45:00Z,30.4178,-88.4054,1.23,25.6,1111122 
NERRS,ioos:station:NOAA.NERRS:gndbhwq:1,2016-12-09T01:45:00Z,30.4178,-88.4054,1.24,25.4,1111122 
NERRS,ioos:station:NOAA.NERRS:gndbhwq:1,2016-12-09T02:45:00Z,30.4178,-88.4054,1.15,25.3,1111122 
NERRS,ioos:station:NOAA.NERRS:gndbhwq:1,2016-12-09T03:45:00Z,30.4178,-88.4054,1.17,25.3,1111122 
NERRS,ioos:station:NOAA.NERRS:gndbhwq:1,2016-12-09T04:45:00Z,30.4178,-88.4054,1.2,25.3,1111122 
NERRS,ioos:station:NOAA.NERRS:gndbhwq:1,2016-12-09T05:45:00Z,30.4178,-88.4054,1.09,25.1,1111122 
NERRS,ioos:station:NOAA.NERRS:gndbhwq:1,2016-12-09T06:45:00Z,30.4178,-88.4054,1.06,25.1,1111122 
NERRS,ioos:station:NOAA.NERRS:gndbhwq:1,2016-12-09T08:45:00Z,30.4178,-88.4054,1.13,25.1,1111122 
NERRS,ioos:station:NOAA.NERRS:gndbhwq:1,2016-12-09T09:45:00Z,30.4178,-88.4054,1.08,25.1,1111122 
NERRS,ioos:station:NOAA.NERRS:gndbhwq:1,2016-12-09T10:45:00Z,30.4178,-88.4054,1.03,25.0,1111122 
NERRS,ioos:station:NOAA.NERRS:gndbhwq:1,2016-12-09T11:45:00Z,30.4178,-88.4054,1.04,25.0,1111122 
NERRS,ioos:station:NOAA.NERRS:gndbhwq:1,2016-12-09T12:45:00Z,30.4178,-88.4054,1.0,25.0,1111122 
NERRS,ioos:station:NOAA.NERRS:gndbhwq:1,2016-12-09T13:45:00Z,30.4178,-88.4054,1.1,25.0,1111122 
NERRS,ioos:station:NOAA.NERRS:gndbhwq:1,2016-12-09T14:45:00Z,30.4178,-88.4054,1.14,25.0,1111122 
NERRS,ioos:station:NOAA.NERRS:gndbhwq:1,2016-12-09T15:45:00Z,30.4178,-88.4054,1.15,25.0,1111122 
NERRS,ioos:station:NOAA.NERRS:gndbhwq:1,2016-12-09T16:45:00Z,30.4178,-88.4054,1.13,24.9,1111122 
NERRS,ioos:station:NOAA.NERRS:gndbhwq:1,2016-12-09T17:45:00Z,30.4178,-88.4054,1.18,24.9,1111122 
NERRS,ioos:station:NOAA.NERRS:gndbhwq:1,2016-12-09T18:45:00Z,30.4178,-88.4054,1.09,24.8,1111122 
NERRS,ioos:station:NOAA.NERRS:gndbhwq:1,2016-12-09T19:45:00Z,30.4178,-88.4054,1.21,24.8,1111122 
NERRS,ioos:station:NOAA.NERRS:gndbhwq:1,2016-12-09T20:45:00Z,30.4178,-88.4054,1.28,24.8,1111122 
NERRS,ioos:station:NOAA.NERRS:gndbhwq:1,2016-12-09T21:45:00Z,30.4178,-88.4054,1.27,24.7,1111122 
NERRS,ioos:station:NOAA.NERRS:gndbhwq:1,2016-12-09T22:45:00Z,30.4178,-88.4054,1.29,24.6,1111122 
NERRS,ioos:station:NOAA.NERRS:gndbhwq:1,2016-12-09T23:45:00Z,30.4178,-88.4054,1.29,24.6,1111122 
NERRS,ioos:station:NOAA.NERRS:gndbhwq:1,2016-12-10T00:45:00Z,30.4178,-88.4054,1.24,24.6,1111122 
NERRS,ioos:station:NOAA.NERRS:gndbhwq:1,2016-12-10T01:45:00Z,30.4178,-88.4054,1.32,24.5,1111122 
NERRS,ioos:station:NOAA.NERRS:gndbhwq:1,2016-12-10T02:45:00Z,30.4178,-88.4054,1.23,24.4,1111122 
NERRS,ioos:station:NOAA.NERRS:gndbhwq:1,2016-12-10T03:45:00Z,30.4178,-88.4054,1.26,24.3,1111122 
NERRS,ioos:station:NOAA.NERRS:gndbhwq:1,2016-12-10T04:45:00Z,30.4178,-88.4054,1.22,24.3,1111122 
NERRS,ioos:station:NOAA.NERRS:gndbhwq:1,2016-12-10T05:45:00Z,30.4178,-88.4054,1.16,24.2,1111122 
NERRS,ioos:station:NOAA.NERRS:gndbhwq:1,2016-12-10T06:45:00Z,30.4178,-88.4054,1.09,24.2,1111122 
NERRS,ioos:station:NOAA.NERRS:gndbhwq:1,2016-12-10T07:45:00Z,30.4178,-88.4054,1.05,24.1,1111122 
NERRS,ioos:station:NOAA.NERRS:gndbhwq:1,2016-12-10T08:45:00Z,30.4178,-88.4054,1.01,24.1,1111122 
NERRS,ioos:station:NOAA.NERRS:gndbhwq:1,2016-12-10T09:45:00Z,30.4178,-88.4054,1.03,24.1,1111122 
NERRS,ioos:station:NOAA.NERRS:gndbhwq:1,2016-12-10T10:45:00Z,30.4178,-88.4054,1.06,24.1,1111122 
NERRS,ioos:station:NOAA.NERRS:gndbhwq:1,2016-12-10T11:45:00Z,30.4178,-88.4054,1.08,24.1,1111122 
NERRS,ioos:station:NOAA.NERRS:gndbhwq:1,2016-12-10T12:45:00Z,30.4178,-88.4054,1.08,24.0,1111122 
NERRS,ioos:station:NOAA.NERRS:gndbhwq:1,2016-12-10T13:45:00Z,30.4178,-88.4054,1.13,24.0,1111122 
NERRS,ioos:station:NOAA.NERRS:gndbhwq:1,2016-12-10T14:45:00Z,30.4178,-88.4054,1.19,23.9,1111122 
NERRS,ioos:station:NOAA.NERRS:gndbhwq:1,2016-12-10T15:45:00Z,30.4178,-88.4054,1.22,23.9,1111122 
NERRS,ioos:station:NOAA.NERRS:gndbhwq:1,2016-12-10T16:45:00Z,30.4178,-88.4054,1.18,23.9,1111122 
NERRS,ioos:station:NOAA.NERRS:gndbhwq:1,2016-12-10T17:45:00Z,30.4178,-88.4054,1.21,23.9,1111122 
NERRS,ioos:station:NOAA.NERRS:gndbhwq:1,2016-12-10T18:45:00Z,30.4178,-88.4054,1.18,24.2,1111122 
NERRS,ioos:station:NOAA.NERRS:gndbhwq:1,2016-12-10T19:45:00Z,30.4178,-88.4054,1.18,24.5,1111122 
NERRS,ioos:station:NOAA.NERRS:gndbhwq:1,2016-12-10T20:45:00Z,30.4178,-88.4054,1.24,24.7,1111122 
NERRS,ioos:station:NOAA.NERRS:gndbhwq:1,2016-12-10T21:45:00Z,30.4178,-88.4054,1.32,24.9,1111122 
NERRS,ioos:station:NOAA.NERRS:gndbhwq:1,2016-12-10T22:45:00Z,30.4178,-88.4054,1.4,25.2,1111122 
NERRS,ioos:station:NOAA.NERRS:gndbhwq:1,2016-12-10T23:45:00Z,30.4178,-88.4054,1.38,25.4,1111122 
NERRS,ioos:station:NOAA.NERRS:gndbhwq:1,2016-12-11T00:45:00Z,30.4178,-88.4054,1.42,25.5,1111122 
NERRS,ioos:station:NOAA.NERRS:gndbhwq:1,2016-12-11T01:45:00Z,30.4178,-88.4054,1.44,25.6,1111122 
NERRS,ioos:station:NOAA.NERRS:gndbhwq:1,2016-12-11T02:45:00Z,30.4178,-88.4054,1.44,25.6,1111122 
NERRS,ioos:station:NOAA.NERRS:gndbhwq:1,2016-12-11T03:45:00Z,30.4178,-88.4054,1.41,25.7,1111122 
NERRS,ioos:station:NOAA.NERRS:gndbhwq:1,2016-12-11T04:45:00Z,30.4178,-88.4054,1.35,25.8,1111122 
NERRS,ioos:station:NOAA.NERRS:gndbhwq:1,2016-12-11T05:45:00Z,30.4178,-88.4054,1.31,25.8,1111122 
NERRS,ioos:station:NOAA.NERRS:gndbhwq:1,2016-12-11T06:45:00Z,30.4178,-88.4054,1.17,25.7,1111122 
NERRS,ioos:station:NOAA.NERRS:gndbhwq:1,2016-12-11T07:45:00Z,30.4178,-88.4054,1.09,25.7,1111122 
NERRS,ioos:station:NOAA.NERRS:gndbhwq:1,2016-12-11T08:45:00Z,30.4178,-88.4054,1.04,25.7,1111122 
NERRS,ioos:station:NOAA.NERRS:gndbhwq:1,2016-12-11T09:45:00Z,30.4178,-88.4054,1.02,25.8,1111122 
NERRS,ioos:station:NOAA.NERRS:gndbhwq:1,2016-12-11T10:45:00Z,30.4178,-88.4054,1.02,25.8,1111122 
NERRS,ioos:station:NOAA.NERRS:gndbhwq:1,2016-12-11T11:45:00Z,30.4178,-88.4054,1.05,25.9,1111122 
NERRS,ioos:station:NOAA.NERRS:gndbhwq:1,2016-12-11T12:45:00Z,30.4178,-88.4054,1.05,25.9,1111122 
NERRS,ioos:station:NOAA.NERRS:gndbhwq:1,2016-12-11T13:45:00Z,30.4178,-88.4054,1.07,25.9,1111122 
NERRS,ioos:station:NOAA.NERRS:gndbhwq:1,2016-12-11T14:45:00Z,30.4178,-88.4054,1.12,25.9,1111122 